Location: Moy Burn
(57.3833°N, 4.0667°W)
Time: 10:21:30
(UTC+00:00)

Cosmos 2322 Rocket - Pass Details

Date: 08 August 2020
Orbit: 831 x 852 km, 71.0° (Epoch: 18 September)

Event Time Altitude Azimuth Distance (km) Brightness Sun altitude
Rises 23:37:05 0° 321° (NW) 3,420 6.5 -16.2°
Reaches altitude 10° 23:39:52 10° 310° (NW) 2,483 5.4 -16.3°
Maximum altitude 23:44:32 27° 255° (WSW) 1,590 3.6 -16.4°
Enters shadow 23:47:32 17° 212° (SSW) 2,009 3.7 -16.5°
